TimeCST,TemperatureF,Dew PointF,Humidity,Sea Level PressureIn,VisibilityMPH,Wind Direction,Wind SpeedMPH,Gust SpeedMPH,PrecipitationIn,Events,Conditions,WindDirDegrees,DateUTC
12:05 AM,26.6,23.0,86,30.18,10.0,Calm,Calm,-,N/A,,Clear,0,2012-11-25 06:05:00
12:25 AM,26.6,23.0,86,30.18,10.0,Calm,Calm,-,N/A,,Clear,0,2012-11-25 06:25:00
12:45 AM,24.8,21.2,86,30.18,10.0,Calm,Calm,-,N/A,,Clear,0,2012-11-25 06:45:00
1:05 AM,24.8,23.0,93,30.17,9.0,Calm,Calm,-,N/A,,Clear,0,2012-11-25 07:05:00
1:25 AM,24.8,23.0,93,30.16,10.0,Calm,Calm,-,N/A,,Clear,0,2012-11-25 07:25:00
1:45 AM,24.8,21.2,86,30.16,10.0,Calm,Calm,-,N/A,,Clear,0,2012-11-25 07:45:00
2:05 AM,24.8,23.0,93,30.17,10.0,Calm,Calm,-,N/A,,Clear,0,2012-11-25 08:05:00
2:25 AM,24.8,21.2,86,30.16,10.0,Calm,Calm,-,N/A,,Clear,0,2012-11-25 08:25:00
2:45 AM,24.8,21.2,86,30.16,10.0,Calm,Calm,-,N/A,,Clear,0,2012-11-25 08:45:00
3:05 AM,24.8,21.2,86,30.15,10.0,SSE,3.5,-,N/A,,Clear,160,2012-11-25 09:05:00
3:25 AM,24.8,23.0,93,30.16,10.0,Calm,Calm,-,N/A,,Clear,0,2012-11-25 09:25:00
3:45 AM,23.0,21.2,93,30.15,10.0,Calm,Calm,-,N/A,,Clear,0,2012-11-25 09:45:00
4:05 AM,24.8,21.2,86,30.16,10.0,Calm,Calm,-,N/A,,Clear,0,2012-11-25 10:05:00
4:25 AM,23.0,19.4,86,30.15,10.0,Calm,Calm,-,N/A,,Clear,0,2012-11-25 10:25:00
4:45 AM,24.8,23.0,93,30.15,10.0,Calm,Calm,-,N/A,,Clear,0,2012-11-25 10:45:00
5:25 AM,23.0,19.4,86,30.16,10.0,East,4.6,-,N/A,,Clear,100,2012-11-25 11:25:00
5:45 AM,23.0,19.4,86,30.16,10.0,SE,3.5,-,N/A,,Clear,140,2012-11-25 11:45:00
6:05 AM,23.0,19.4,86,30.16,10.0,Calm,Calm,-,N/A,,Clear,0,2012-11-25 12:05:00
6:25 AM,23.0,19.4,86,30.16,10.0,Calm,Calm,-,N/A,,Clear,0,2012-11-25 12:25:00
6:45 AM,23.0,19.4,86,30.16,7.0,Calm,Calm,-,N/A,,Clear,0,2012-11-25 12:45:00
7:05 AM,24.8,21.2,86,30.16,10.0,Calm,Calm,-,N/A,,Clear,0,2012-11-25 13:05:00
7:25 AM,26.6,23.0,86,30.17,9.0,Calm,Calm,-,N/A,,Clear,0,2012-11-25 13:25:00
7:45 AM,28.4,24.8,86,30.16,8.0,Calm,Calm,-,N/A,,Clear,0,2012-11-25 13:45:00
8:05 AM,32.0,26.6,80,30.17,10.0,Calm,Calm,-,N/A,,Clear,0,2012-11-25 14:05:00
8:25 AM,35.6,28.4,75,30.17,10.0,SSE,5.8,-,N/A,,Clear,160,2012-11-25 14:25:00
8:45 AM,39.2,28.4,65,30.17,10.0,SSE,5.8,-,N/A,,Clear,160,2012-11-25 14:45:00
9:05 AM,42.8,28.4,57,30.17,10.0,South,6.9,-,N/A,,Clear,170,2012-11-25 15:05:00
9:25 AM,44.6,24.8,46,30.17,10.0,South,8.1,-,N/A,,Clear,190,2012-11-25 15:25:00
9:45 AM,46.4,24.8,43,30.17,10.0,South,10.4,-,N/A,,Clear,180,2012-11-25 15:45:00
10:05 AM,48.2,24.8,40,30.16,10.0,South,9.2,18.4,N/A,,Clear,190,2012-11-25 16:05:00
10:25 AM,48.2,23.0,37,30.15,10.0,South,9.2,-,N/A,,Clear,190,2012-11-25 16:25:00
10:45 AM,50.0,23.0,35,30.14,10.0,South,6.9,-,N/A,,Clear,180,2012-11-25 16:45:00
11:05 AM,51.8,24.8,35,30.13,10.0,South,10.4,-,N/A,,Clear,170,2012-11-25 17:05:00
11:25 AM,53.6,24.8,33,30.12,10.0,SSW,9.2,-,N/A,,Clear,210,2012-11-25 17:25:00
11:45 AM,53.6,23.0,30,30.10,10.0,South,5.8,-,N/A,,Clear,190,2012-11-25 17:45:00
12:05 PM,53.6,23.0,30,30.09,10.0,SSW,8.1,-,N/A,,Clear,200,2012-11-25 18:05:00
12:25 PM,55.4,21.2,26,30.09,10.0,South,10.4,-,N/A,,Clear,180,2012-11-25 18:25:00
12:45 PM,57.2,23.0,27,30.08,10.0,SW,10.4,-,N/A,,Clear,230,2012-11-25 18:45:00
1:05 PM,57.2,23.0,27,30.07,10.0,South,9.2,-,N/A,,Clear,190,2012-11-25 19:05:00
1:25 PM,57.2,23.0,27,30.06,10.0,South,8.1,-,N/A,,Clear,180,2012-11-25 19:25:00
1:45 PM,57.2,23.0,27,30.05,10.0,South,9.2,-,N/A,,Clear,180,2012-11-25 19:45:00
2:05 PM,57.2,23.0,27,30.05,10.0,SSW,10.4,-,N/A,,Clear,200,2012-11-25 20:05:00
2:25 PM,59.0,23.0,25,30.04,10.0,SSW,8.1,-,N/A,,Clear,200,2012-11-25 20:25:00
2:45 PM,59.0,24.8,27,30.04,10.0,SSE,10.4,-,N/A,,Clear,160,2012-11-25 20:45:00
3:05 PM,59.0,24.8,27,30.04,10.0,South,9.2,-,N/A,,Clear,180,2012-11-25 21:05:00
3:25 PM,57.2,24.8,29,30.04,10.0,South,8.1,-,N/A,,Clear,170,2012-11-25 21:25:00
3:45 PM,57.2,24.8,29,30.04,10.0,South,9.2,-,N/A,,Clear,170,2012-11-25 21:45:00
4:05 PM,55.4,24.8,31,30.04,10.0,South,8.1,-,N/A,,Clear,180,2012-11-25 22:05:00
4:25 PM,53.6,24.8,33,30.04,10.0,South,8.1,-,N/A,,Clear,180,2012-11-25 22:25:00
4:45 PM,51.8,24.8,35,30.04,10.0,South,5.8,-,N/A,,Clear,180,2012-11-25 22:45:00
5:05 PM,50.0,24.8,37,30.04,10.0,South,4.6,-,N/A,,Clear,180,2012-11-25 23:05:00
5:25 PM,50.0,24.8,37,30.04,7.0,South,5.8,-,N/A,,Clear,180,2012-11-25 23:25:00
5:45 PM,48.2,24.8,40,30.05,10.0,SSE,3.5,-,N/A,,Clear,160,2012-11-25 23:45:00
6:05 PM,48.2,24.8,40,30.05,10.0,South,4.6,-,N/A,,Clear,170,2012-11-26 00:05:00
6:25 PM,48.2,24.8,40,30.05,10.0,South,4.6,-,N/A,,Clear,180,2012-11-26 00:25:00
6:45 PM,46.4,24.8,43,30.06,10.0,South,3.5,-,N/A,,Clear,180,2012-11-26 00:45:00
7:05 PM,44.6,24.8,46,30.05,10.0,South,6.9,-,N/A,,Clear,170,2012-11-26 01:05:00
7:25 PM,44.6,24.8,46,30.05,10.0,SSE,5.8,-,N/A,,Clear,160,2012-11-26 01:25:00
7:45 PM,42.8,26.6,53,30.05,10.0,SSE,5.8,-,N/A,,Clear,160,2012-11-26 01:45:00
8:05 PM,44.6,26.6,49,30.05,10.0,SSE,6.9,-,N/A,,Clear,160,2012-11-26 02:05:00
8:25 PM,44.6,26.6,49,30.05,10.0,South,8.1,-,N/A,,Clear,170,2012-11-26 02:25:00
8:45 PM,44.6,26.6,49,30.05,10.0,South,6.9,-,N/A,,Clear,180,2012-11-26 02:45:00
9:05 PM,42.8,26.6,53,30.05,10.0,South,6.9,-,N/A,,Clear,180,2012-11-26 03:05:00
9:25 PM,44.6,26.6,49,30.06,10.0,South,6.9,-,N/A,,Clear,170,2012-11-26 03:25:00
9:45 PM,42.8,26.6,53,30.06,10.0,South,8.1,-,N/A,,Clear,170,2012-11-26 03:45:00
10:05 PM,42.8,26.6,53,30.06,10.0,South,8.1,-,N/A,,Partly Cloudy,170,2012-11-26 04:05:00
10:25 PM,41.0,26.6,57,30.06,10.0,SSE,5.8,-,N/A,,Partly Cloudy,150,2012-11-26 04:25:00
10:45 PM,41.0,26.6,57,30.07,10.0,Calm,Calm,-,N/A,,Clear,0,2012-11-26 04:45:00
11:05 PM,41.0,26.6,57,30.07,10.0,SE,3.5,-,N/A,,Clear,130,2012-11-26 05:05:00
11:25 PM,41.0,26.6,57,30.08,10.0,Calm,Calm,-,N/A,,Clear,0,2012-11-26 05:25:00
11:45 PM,41.0,26.6,57,30.08,10.0,SE,3.5,-,N/A,,Clear,140,2012-11-26 05:45:00